Year,Month,Day,Hour,Minute,Value (Times are PST for temperature in C)
2006,06,24,00,00,11.90
2006,06,24,00,01,11.90
2006,06,24,00,02,11.90
2006,06,24,00,03,11.90
2006,06,24,00,04,11.80
2006,06,24,00,05,11.80
2006,06,24,00,06,11.80
2006,06,24,00,07,11.80
2006,06,24,00,08,11.80
2006,06,24,00,09,11.80
2006,06,24,00,10,11.80
2006,06,24,00,11,11.80
2006,06,24,00,12,11.80
2006,06,24,00,13,11.80
2006,06,24,00,14,11.80
2006,06,24,00,15,11.70
2006,06,24,00,16,11.70
2006,06,24,00,17,11.70
2006,06,24,00,18,11.60
2006,06,24,00,19,11.60
2006,06,24,00,20,11.60
2006,06,24,00,21,11.60
2006,06,24,00,22,11.60
2006,06,24,00,23,11.60
2006,06,24,00,24,11.50
2006,06,24,00,25,11.40
2006,06,24,00,26,11.40
2006,06,24,00,27,11.40
2006,06,24,00,28,11.40
2006,06,24,00,29,11.40
2006,06,24,00,30,11.30
2006,06,24,00,31,11.30
2006,06,24,00,32,11.30
2006,06,24,00,33,11.30
2006,06,24,00,34,11.20
2006,06,24,00,35,11.20
2006,06,24,00,36,11.20
2006,06,24,00,37,11.20
2006,06,24,00,38,11.10
2006,06,24,00,39,11.10
2006,06,24,00,40,11.10
2006,06,24,00,41,11.10
2006,06,24,00,42,11.10
2006,06,24,00,43,11.10
2006,06,24,00,44,10.90
2006,06,24,00,45,10.90
2006,06,24,00,46,10.90
2006,06,24,00,47,10.90
2006,06,24,00,48,10.90
2006,06,24,00,49,10.90
2006,06,24,00,50,10.90
2006,06,24,00,51,10.90
2006,06,24,00,52,10.90
2006,06,24,00,53,10.90
2006,06,24,00,54,10.90
2006,06,24,00,55,10.80
2006,06,24,00,56,10.80
2006,06,24,00,57,10.80
2006,06,24,00,58,10.80
2006,06,24,00,59,10.80
2006,06,24,01,00,10.70
2006,06,24,01,01,10.70
2006,06,24,01,02,10.70
2006,06,24,01,03,10.70
2006,06,24,01,04,10.70
2006,06,24,01,05,10.60
2006,06,24,01,06,10.60
2006,06,24,01,07,10.60
2006,06,24,01,08,10.60
2006,06,24,01,09,10.60
2006,06,24,01,10,10.60
2006,06,24,01,11,10.60
2006,06,24,01,12,10.60
2006,06,24,01,13,10.60
2006,06,24,01,14,10.60
2006,06,24,01,15,10.60
2006,06,24,01,16,10.60
2006,06,24,01,17,10.60
2006,06,24,01,18,10.60
2006,06,24,01,19,10.60
2006,06,24,01,20,10.60
2006,06,24,01,21,10.50
2006,06,24,01,22,10.40
2006,06,24,01,23,10.40
2006,06,24,01,24,10.40
2006,06,24,01,25,10.40
2006,06,24,01,26,10.40
2006,06,24,01,27,10.40
2006,06,24,01,28,10.40
2006,06,24,01,29,10.40
2006,06,24,01,30,10.40
2006,06,24,01,31,10.40
2006,06,24,01,32,10.40
2006,06,24,01,33,10.40
2006,06,24,01,34,10.30
2006,06,24,01,35,10.30
2006,06,24,01,36,10.30
2006,06,24,01,37,10.30
2006,06,24,01,38,10.30
2006,06,24,01,39,10.30
2006,06,24,01,40,10.20
2006,06,24,01,41,10.20
2006,06,24,01,42,10.20
2006,06,24,01,43,10.20
2006,06,24,01,44,10.20
2006,06,24,01,45,10.10
2006,06,24,01,46,10.10
2006,06,24,01,47,10.10
2006,06,24,01,48,10.10
2006,06,24,01,49,10.10
2006,06,24,01,50,10.10
2006,06,24,01,51,10.10
2006,06,24,01,52,10.10
2006,06,24,01,53,10.10
2006,06,24,01,54,10.00
2006,06,24,01,55,9.90
2006,06,24,01,56,9.90
2006,06,24,01,57,9.90
2006,06,24,01,58,9.90
2006,06,24,01,59,9.90
2006,06,24,02,00,9.90
2006,06,24,02,01,9.90
2006,06,24,02,02,9.90
2006,06,24,02,03,9.90
2006,06,24,02,04,9.90
2006,06,24,02,05,9.90
2006,06,24,02,06,9.90
2006,06,24,02,07,9.90
2006,06,24,02,08,9.90
2006,06,24,02,09,9.90
2006,06,24,02,10,9.90
2006,06,24,02,11,9.90
2006,06,24,02,12,9.90
2006,06,24,02,13,9.90
2006,06,24,02,14,9.90
2006,06,24,02,15,9.90
2006,06,24,02,16,9.90
2006,06,24,02,17,9.90
2006,06,24,02,18,9.80
2006,06,24,02,19,9.80
2006,06,24,02,20,9.80
2006,06,24,02,21,9.80
2006,06,24,02,22,9.80
2006,06,24,02,23,9.80
2006,06,24,02,24,9.80
2006,06,24,02,25,9.80
2006,06,24,02,26,9.80
2006,06,24,02,27,9.80
2006,06,24,02,28,9.80
2006,06,24,02,29,9.80
2006,06,24,02,30,9.80
2006,06,24,02,31,9.80
2006,06,24,02,32,9.70
2006,06,24,02,33,9.70
2006,06,24,02,34,9.70
2006,06,24,02,35,9.70
2006,06,24,02,36,9.70
2006,06,24,02,37,9.70
2006,06,24,02,38,9.70
2006,06,24,02,39,9.70
2006,06,24,02,40,9.70
2006,06,24,02,41,9.70
2006,06,24,02,42,9.70
2006,06,24,02,43,9.60
2006,06,24,02,44,9.60
2006,06,24,02,45,9.60
2006,06,24,02,46,9.60
2006,06,24,02,47,9.60
2006,06,24,02,48,9.50
2006,06,24,02,49,9.50
2006,06,24,02,50,9.50
2006,06,24,02,51,9.50
2006,06,24,02,52,9.50
2006,06,24,02,53,9.40
2006,06,24,02,54,9.40
2006,06,24,02,55,9.40
2006,06,24,02,56,9.40
2006,06,24,02,57,9.40
2006,06,24,02,58,9.40
2006,06,24,02,59,9.30
2006,06,24,03,00,9.30
2006,06,24,03,01,9.30
2006,06,24,03,02,9.30
2006,06,24,03,03,9.30
2006,06,24,03,04,9.30
2006,06,24,03,05,9.30
2006,06,24,03,06,9.20
2006,06,24,03,07,9.20
2006,06,24,03,08,9.20
2006,06,24,03,09,9.20
2006,06,24,03,10,9.20
2006,06,24,03,11,9.20
2006,06,24,03,12,9.30
2006,06,24,03,13,9.30
2006,06,24,03,14,9.30
2006,06,24,03,15,9.30
2006,06,24,03,16,9.30
2006,06,24,03,17,9.20
2006,06,24,03,18,9.20
2006,06,24,03,19,9.20
2006,06,24,03,20,9.20
2006,06,24,03,21,9.20
2006,06,24,03,22,9.20
2006,06,24,03,23,9.20
2006,06,24,03,24,9.20
2006,06,24,03,25,9.20
2006,06,24,03,26,9.20
2006,06,24,03,27,9.20
2006,06,24,03,28,9.20
2006,06,24,03,29,9.10
2006,06,24,03,30,9.10
2006,06,24,03,31,9.10
2006,06,24,03,32,9.10
2006,06,24,03,33,9.10
2006,06,24,03,34,9.10
2006,06,24,03,35,9.10
2006,06,24,03,36,9.00
2006,06,24,03,37,9.00
2006,06,24,03,38,9.00
2006,06,24,03,39,9.00
2006,06,24,03,40,9.00
2006,06,24,03,41,9.00
2006,06,24,03,42,9.00
2006,06,24,03,43,9.00
2006,06,24,03,44,9.00
2006,06,24,03,45,9.00
2006,06,24,03,46,9.00
2006,06,24,03,47,9.00
2006,06,24,03,48,9.00
2006,06,24,03,49,9.00
2006,06,24,03,50,9.00
2006,06,24,03,51,9.00
2006,06,24,03,52,9.00
2006,06,24,03,53,9.00
2006,06,24,03,54,9.00
2006,06,24,03,55,9.00
2006,06,24,03,56,8.90
2006,06,24,03,57,8.90
2006,06,24,03,58,8.90
2006,06,24,03,59,8.90
2006,06,24,04,00,8.90
2006,06,24,04,01,8.80
2006,06,24,04,02,8.80
2006,06,24,04,03,8.80
2006,06,24,04,04,8.80
2006,06,24,04,05,8.80
2006,06,24,04,06,8.70
2006,06,24,04,07,8.70
2006,06,24,04,08,8.70
2006,06,24,04,09,8.70
2006,06,24,04,10,8.70
2006,06,24,04,11,8.70
2006,06,24,04,12,8.70
2006,06,24,04,13,8.70
2006,06,24,04,14,8.70
2006,06,24,04,15,8.70
2006,06,24,04,16,8.70
2006,06,24,04,17,8.70
2006,06,24,04,18,8.70
2006,06,24,04,19,8.70
2006,06,24,04,20,8.70
2006,06,24,04,21,8.70
2006,06,24,04,22,8.70
2006,06,24,04,23,8.70
2006,06,24,04,24,8.70
2006,06,24,04,25,8.70
2006,06,24,04,26,8.70
2006,06,24,04,27,8.70
2006,06,24,04,28,8.70
2006,06,24,04,29,8.70
2006,06,24,04,30,8.70
2006,06,24,04,31,8.70
2006,06,24,04,32,8.60
2006,06,24,04,33,8.60
2006,06,24,04,34,8.60
2006,06,24,04,35,8.60
2006,06,24,04,36,8.60
2006,06,24,04,37,8.60
2006,06,24,04,38,8.60
2006,06,24,04,39,8.50
2006,06,24,04,40,8.50
2006,06,24,04,41,8.60
2006,06,24,04,42,8.60
2006,06,24,04,43,8.50
2006,06,24,04,44,8.50
2006,06,24,04,45,8.50
2006,06,24,04,46,8.50
2006,06,24,04,47,8.50
2006,06,24,04,48,8.50
2006,06,24,04,49,8.50
2006,06,24,04,50,8.50
2006,06,24,04,51,8.50
2006,06,24,04,52,8.50
2006,06,24,04,53,8.50
2006,06,24,04,54,8.40
2006,06,24,04,55,8.40
2006,06,24,04,56,8.40
2006,06,24,04,57,8.40
2006,06,24,04,58,8.40
2006,06,24,04,59,8.40
2006,06,24,05,00,8.30
2006,06,24,05,01,8.30
2006,06,24,05,02,8.30
2006,06,24,05,03,8.30
2006,06,24,05,04,8.30
2006,06,24,05,05,8.30
2006,06,24,05,06,8.30
2006,06,24,05,07,8.30
2006,06,24,05,08,8.20
2006,06,24,05,09,8.20
2006,06,24,05,10,8.20
2006,06,24,05,11,8.20
2006,06,24,05,12,8.20
2006,06,24,05,13,8.20
2006,06,24,05,14,8.20
2006,06,24,05,15,8.20
2006,06,24,05,16,8.20
2006,06,24,05,17,8.20
2006,06,24,05,18,8.20
2006,06,24,05,19,8.20
2006,06,24,05,20,8.20
2006,06,24,05,21,8.20
2006,06,24,05,22,8.20
2006,06,24,05,23,8.20
2006,06,24,05,24,8.20
2006,06,24,05,25,8.20
2006,06,24,05,26,8.20
2006,06,24,05,27,8.20
2006,06,24,05,28,8.20
2006,06,24,05,29,8.20
2006,06,24,05,30,8.20
2006,06,24,05,31,8.20
2006,06,24,05,32,8.20
2006,06,24,05,33,8.20
2006,06,24,05,34,8.20
2006,06,24,05,35,8.10
2006,06,24,05,36,8.10
2006,06,24,05,37,8.10
2006,06,24,05,38,8.10
2006,06,24,05,39,8.10
2006,06,24,05,40,8.10
2006,06,24,05,41,8.10
2006,06,24,05,42,8.10
2006,06,24,05,43,8.10
2006,06,24,05,44,8.10
2006,06,24,05,45,8.10
2006,06,24,05,46,8.10
2006,06,24,05,47,8.20
2006,06,24,05,48,8.20
2006,06,24,05,49,8.20
2006,06,24,05,50,8.20
2006,06,24,05,51,8.20
2006,06,24,05,52,8.20
2006,06,24,05,53,8.20
2006,06,24,05,54,8.20
2006,06,24,05,55,8.20
2006,06,24,05,56,8.20
2006,06,24,05,57,8.20
2006,06,24,05,58,8.20
2006,06,24,05,59,8.20
2006,06,24,06,00,8.20
2006,06,24,06,01,8.20
2006,06,24,06,02,8.20
2006,06,24,06,03,8.20
2006,06,24,06,04,8.20
2006,06,24,06,05,8.20
2006,06,24,06,06,8.20
2006,06,24,06,07,8.20
2006,06,24,06,08,8.30
2006,06,24,06,09,8.30
2006,06,24,06,10,8.30
2006,06,24,06,11,8.30
2006,06,24,06,12,8.30
2006,06,24,06,13,8.30
2006,06,24,06,14,8.40
2006,06,24,06,15,8.40
2006,06,24,06,16,8.40
2006,06,24,06,17,8.50
2006,06,24,06,18,8.60
2006,06,24,06,19,8.60
2006,06,24,06,20,8.70
2006,06,24,06,21,8.70
2006,06,24,06,22,8.80
2006,06,24,06,23,8.80
2006,06,24,06,24,8.90
2006,06,24,06,25,8.90
2006,06,24,06,26,9.00
2006,06,24,06,27,9.00
2006,06,24,06,28,9.10
2006,06,24,06,29,9.20
2006,06,24,06,30,9.30
2006,06,24,06,31,9.40
2006,06,24,06,32,9.50
2006,06,24,06,33,9.60
2006,06,24,06,34,9.70
2006,06,24,06,35,9.80
2006,06,24,06,36,9.90
2006,06,24,06,37,10.00
2006,06,24,06,38,10.10
2006,06,24,06,39,10.30
2006,06,24,06,40,10.40
2006,06,24,06,41,10.50
2006,06,24,06,42,10.60
2006,06,24,06,43,10.70
2006,06,24,06,44,10.80
2006,06,24,06,45,10.90
2006,06,24,06,46,10.90
2006,06,24,06,47,11.00
2006,06,24,06,48,11.10
2006,06,24,06,49,11.10
2006,06,24,06,50,11.20
2006,06,24,06,51,11.20
2006,06,24,06,52,11.30
2006,06,24,06,53,11.30
2006,06,24,06,54,11.40
2006,06,24,06,55,11.40
2006,06,24,06,56,11.40
2006,06,24,06,57,11.40
2006,06,24,06,58,11.50
2006,06,24,06,59,11.60
2006,06,24,07,00,11.60
2006,06,24,07,01,11.60
2006,06,24,07,02,11.70
2006,06,24,07,03,11.80
2006,06,24,07,04,11.80
2006,06,24,07,05,11.90
2006,06,24,07,06,12.00
2006,06,24,07,07,12.20
2006,06,24,07,08,12.30
2006,06,24,07,09,12.40
2006,06,24,07,10,12.50
2006,06,24,07,11,12.50
2006,06,24,07,12,12.60
2006,06,24,07,13,12.60
2006,06,24,07,14,12.70
2006,06,24,07,15,12.80
2006,06,24,07,16,12.80
2006,06,24,07,17,12.80
2006,06,24,07,18,12.90
2006,06,24,07,19,13.00
2006,06,24,07,20,13.10
2006,06,24,07,21,13.10
2006,06,24,07,22,13.20
2006,06,24,07,23,13.30
2006,06,24,07,24,13.30
2006,06,24,07,25,13.30
2006,06,24,07,26,13.30
2006,06,24,07,27,13.40
2006,06,24,07,28,13.50
2006,06,24,07,29,13.60
2006,06,24,07,30,13.60
2006,06,24,07,31,13.70
2006,06,24,07,32,13.70
2006,06,24,07,33,13.80
2006,06,24,07,34,14.00
2006,06,24,07,35,14.10
2006,06,24,07,36,14.30
2006,06,24,07,37,14.50
2006,06,24,07,38,14.60
2006,06,24,07,39,14.70
2006,06,24,07,40,14.90
2006,06,24,07,41,15.00
2006,06,24,07,42,15.10
2006,06,24,07,43,15.20
2006,06,24,07,44,15.40
2006,06,24,07,45,15.50
2006,06,24,07,46,15.60
2006,06,24,07,47,15.70
2006,06,24,07,48,15.80
2006,06,24,07,49,15.90
2006,06,24,07,50,16.10
2006,06,24,07,51,16.10
2006,06,24,07,52,16.20
2006,06,24,07,53,16.30
2006,06,24,07,54,16.40
2006,06,24,07,55,16.50
2006,06,24,07,56,16.60
2006,06,24,07,57,16.70
2006,06,24,07,58,16.90
2006,06,24,07,59,17.00
2006,06,24,08,00,17.10
2006,06,24,08,01,17.30
2006,06,24,08,02,17.40
2006,06,24,08,03,17.60
2006,06,24,08,04,17.70
2006,06,24,08,05,17.80
2006,06,24,08,06,17.90
2006,06,24,08,07,17.90
2006,06,24,08,08,18.00
2006,06,24,08,09,18.10
2006,06,24,08,10,18.20
2006,06,24,08,11,18.20
2006,06,24,08,12,18.30
2006,06,24,08,13,18.40
2006,06,24,08,14,18.50
2006,06,24,08,15,18.50
2006,06,24,08,16,18.60
2006,06,24,08,17,18.60
2006,06,24,08,18,18.60
2006,06,24,08,19,18.70
2006,06,24,08,20,18.70
2006,06,24,08,21,18.70
2006,06,24,08,22,18.70
2006,06,24,08,23,18.80
2006,06,24,08,24,18.80
2006,06,24,08,25,18.80
2006,06,24,08,26,18.90
2006,06,24,08,27,18.90
2006,06,24,08,28,19.00
2006,06,24,08,29,19.10
2006,06,24,08,30,19.10
2006,06,24,08,31,19.10
2006,06,24,08,32,19.10
2006,06,24,08,33,19.10
2006,06,24,08,34,19.00
2006,06,24,08,35,18.90
2006,06,24,08,36,18.90
2006,06,24,08,37,19.00
2006,06,24,08,38,19.10
2006,06,24,08,39,19.10
2006,06,24,08,40,19.10
2006,06,24,08,41,19.20
2006,06,24,08,42,19.20
2006,06,24,08,43,19.20
2006,06,24,08,44,19.30
2006,06,24,08,45,19.30
2006,06,24,08,46,19.30
2006,06,24,08,47,19.30
2006,06,24,08,48,19.40
2006,06,24,08,49,19.40
2006,06,24,08,50,19.40
2006,06,24,08,51,19.40
2006,06,24,08,52,19.50
2006,06,24,08,53,19.60
2006,06,24,08,54,19.60
2006,06,24,08,55,19.50
2006,06,24,08,56,19.50
2006,06,24,08,57,19.50
2006,06,24,08,58,19.50
2006,06,24,08,59,19.50
2006,06,24,09,00,19.60
2006,06,24,09,01,19.60
2006,06,24,09,02,19.70
2006,06,24,09,03,19.80
2006,06,24,09,04,19.90
2006,06,24,09,05,19.90
2006,06,24,09,06,20.00
2006,06,24,09,07,20.10
2006,06,24,09,08,20.20
2006,06,24,09,09,20.20
2006,06,24,09,10,20.10
2006,06,24,09,11,20.10
2006,06,24,09,12,20.10
2006,06,24,09,13,20.20
2006,06,24,09,14,20.20
2006,06,24,09,15,20.20
2006,06,24,09,16,20.20
2006,06,24,09,17,20.20
2006,06,24,09,18,20.20
2006,06,24,09,19,20.20
2006,06,24,09,20,20.20
2006,06,24,09,21,20.20
2006,06,24,09,22,20.20
2006,06,24,09,23,20.20
2006,06,24,09,24,20.20
2006,06,24,09,25,20.20
2006,06,24,09,26,20.30
2006,06,24,09,27,20.30
2006,06,24,09,28,20.30
2006,06,24,09,29,20.30
2006,06,24,09,30,20.40
2006,06,24,09,31,20.40
2006,06,24,09,32,20.50
2006,06,24,09,33,20.60
2006,06,24,09,34,20.70
2006,06,24,09,35,20.80
2006,06,24,09,36,20.90
2006,06,24,09,37,20.90
2006,06,24,09,38,20.90
2006,06,24,09,39,20.80
2006,06,24,09,40,20.80
2006,06,24,09,41,20.80
2006,06,24,09,42,20.80
2006,06,24,09,43,20.80
2006,06,24,09,44,20.80
2006,06,24,09,45,20.80
2006,06,24,09,46,20.70
2006,06,24,09,47,20.60
2006,06,24,09,48,20.60
2006,06,24,09,49,20.60
2006,06,24,09,50,20.70
2006,06,24,09,51,20.80
2006,06,24,09,52,20.70
2006,06,24,09,53,20.80
2006,06,24,09,54,20.80
2006,06,24,09,55,21.00
2006,06,24,09,56,21.00
2006,06,24,09,57,21.00
2006,06,24,09,58,21.00
2006,06,24,09,59,20.90
2006,06,24,10,00,20.90
2006,06,24,10,01,21.00
2006,06,24,10,02,21.00
2006,06,24,10,03,21.10
2006,06,24,10,04,21.20
2006,06,24,10,05,21.30
2006,06,24,10,06,21.30
2006,06,24,10,07,21.30
2006,06,24,10,08,21.30
2006,06,24,10,09,21.30
2006,06,24,10,10,21.30
2006,06,24,10,11,21.20
2006,06,24,10,12,21.10
2006,06,24,10,13,21.10
2006,06,24,10,14,21.20
2006,06,24,10,15,21.30
2006,06,24,10,16,21.20
2006,06,24,10,17,21.20
2006,06,24,10,18,21.20
2006,06,24,10,19,21.20
2006,06,24,10,20,21.20
2006,06,24,10,21,21.20
2006,06,24,10,22,21.20
2006,06,24,10,23,21.20
2006,06,24,10,24,21.20
2006,06,24,10,25,21.20
2006,06,24,10,26,21.20
2006,06,24,10,27,21.30
2006,06,24,10,28,21.30
2006,06,24,10,29,21.30
2006,06,24,10,30,21.30
2006,06,24,10,31,21.30
2006,06,24,10,32,21.30
2006,06,24,10,33,21.30
2006,06,24,10,34,21.40
2006,06,24,10,35,21.50
2006,06,24,10,36,21.60
2006,06,24,10,37,21.60
2006,06,24,10,38,21.70
2006,06,24,10,39,21.70
2006,06,24,10,40,21.70
2006,06,24,10,41,21.80
2006,06,24,10,42,21.80
2006,06,24,10,43,21.80
2006,06,24,10,44,21.70
2006,06,24,10,45,21.70
2006,06,24,10,46,21.60
2006,06,24,10,47,21.60
2006,06,24,10,48,21.70
2006,06,24,10,49,21.80
2006,06,24,10,50,21.90
2006,06,24,10,51,22.00
2006,06,24,10,52,22.10
2006,06,24,10,53,22.20
2006,06,24,10,54,22.40
2006,06,24,10,55,22.50
2006,06,24,10,56,22.60
2006,06,24,10,57,22.80
2006,06,24,10,58,22.80
2006,06,24,10,59,22.80
2006,06,24,11,00,22.70
2006,06,24,11,01,22.70
2006,06,24,11,02,22.60
2006,06,24,11,03,22.40
2006,06,24,11,04,22.40
2006,06,24,11,05,22.40
2006,06,24,11,06,22.40
2006,06,24,11,07,22.50
2006,06,24,11,08,22.60
2006,06,24,11,09,22.70
2006,06,24,11,10,22.70
2006,06,24,11,11,22.70
2006,06,24,11,12,22.80
2006,06,24,11,13,22.80
2006,06,24,11,14,22.90
2006,06,24,11,15,22.90
2006,06,24,11,16,23.10
2006,06,24,11,17,23.20
2006,06,24,11,18,23.30
2006,06,24,11,19,23.30
2006,06,24,11,20,23.30
2006,06,24,11,21,23.30
2006,06,24,11,22,23.30
2006,06,24,11,23,23.30
2006,06,24,11,24,23.30
2006,06,24,11,25,23.10
2006,06,24,11,26,23.00
2006,06,24,11,27,22.90
2006,06,24,11,28,22.90
2006,06,24,11,29,23.00
2006,06,24,11,30,22.90
2006,06,24,11,31,22.90
2006,06,24,11,32,22.90
2006,06,24,11,33,23.00
2006,06,24,11,34,23.20
2006,06,24,11,35,23.20
2006,06,24,11,36,23.20
2006,06,24,11,37,23.30
2006,06,24,11,38,23.30
2006,06,24,11,39,23.40
2006,06,24,11,40,23.50
2006,06,24,11,41,23.60
2006,06,24,11,42,23.70
2006,06,24,11,43,23.70
2006,06,24,11,44,23.70
2006,06,24,11,45,23.70
2006,06,24,11,46,23.90
2006,06,24,11,47,23.90
2006,06,24,11,48,24.00
2006,06,24,11,49,24.10
2006,06,24,11,50,24.10
2006,06,24,11,51,24.10
2006,06,24,11,52,24.10
2006,06,24,11,53,24.10
2006,06,24,11,54,24.20
2006,06,24,11,55,24.20
2006,06,24,11,56,24.20
2006,06,24,11,57,24.20
2006,06,24,11,58,24.20
2006,06,24,11,59,24.10
2006,06,24,12,00,24.10
2006,06,24,12,01,24.00
2006,06,24,12,02,23.90
2006,06,24,12,03,24.00
2006,06,24,12,04,24.00
2006,06,24,12,05,24.10
2006,06,24,12,06,24.10
2006,06,24,12,07,24.10
2006,06,24,12,08,24.30
2006,06,24,12,09,24.30
2006,06,24,12,10,24.10
2006,06,24,12,11,24.00
2006,06,24,12,12,23.90
2006,06,24,12,13,23.90
2006,06,24,12,14,23.90
2006,06,24,12,15,23.90
2006,06,24,12,16,23.90
2006,06,24,12,17,23.80
2006,06,24,12,18,23.80
2006,06,24,12,19,23.70
2006,06,24,12,20,23.70
2006,06,24,12,21,23.70
2006,06,24,12,22,23.70
2006,06,24,12,23,23.80
2006,06,24,12,24,23.80
2006,06,24,12,25,23.80
2006,06,24,12,26,23.80
2006,06,24,12,27,23.70
2006,06,24,12,28,23.70
2006,06,24,12,29,23.70
2006,06,24,12,30,23.50
2006,06,24,12,31,23.40
2006,06,24,12,32,23.40
2006,06,24,12,33,23.40
2006,06,24,12,34,23.40
2006,06,24,12,35,23.30
2006,06,24,12,36,23.30
2006,06,24,12,37,23.30
2006,06,24,12,38,23.30
2006,06,24,12,39,23.30
2006,06,24,12,40,23.30
2006,06,24,12,41,23.20
2006,06,24,12,42,23.20
2006,06,24,12,43,23.30
2006,06,24,12,44,23.30
2006,06,24,12,45,23.30
2006,06,24,12,46,23.40
2006,06,24,12,47,23.40
2006,06,24,12,48,23.30
2006,06,24,12,49,23.30
2006,06,24,12,50,23.20
2006,06,24,12,51,23.20
2006,06,24,12,52,23.30
2006,06,24,12,53,23.30
2006,06,24,12,54,23.40
2006,06,24,12,55,23.50
2006,06,24,12,56,23.60
2006,06,24,12,57,23.40
2006,06,24,12,58,23.30
2006,06,24,12,59,23.30
2006,06,24,13,00,23.20
2006,06,24,13,01,23.20
2006,06,24,13,02,23.10
2006,06,24,13,03,23.10
2006,06,24,13,04,23.00
2006,06,24,13,05,22.90
2006,06,24,13,06,23.00
2006,06,24,13,07,23.10
2006,06,24,13,08,23.20
2006,06,24,13,09,23.30
2006,06,24,13,10,23.30
2006,06,24,13,11,23.30
2006,06,24,13,12,23.30
2006,06,24,13,13,23.40
2006,06,24,13,14,23.50
2006,06,24,13,15,23.60
2006,06,24,13,16,23.70
2006,06,24,13,17,23.90
2006,06,24,13,18,24.00
2006,06,24,13,19,24.20
2006,06,24,13,20,24.40
2006,06,24,13,21,24.50
2006,06,24,13,22,24.60
2006,06,24,13,23,24.70
2006,06,24,13,24,24.80
2006,06,24,13,25,24.90
2006,06,24,13,26,24.90
2006,06,24,13,27,24.90
2006,06,24,13,28,24.80
2006,06,24,13,29,24.80
2006,06,24,13,30,24.80
2006,06,24,13,31,24.70
2006,06,24,13,32,24.50
2006,06,24,13,33,24.50
2006,06,24,13,34,24.40
2006,06,24,13,35,24.30
2006,06,24,13,36,24.30
2006,06,24,13,37,24.30
2006,06,24,13,38,24.40
2006,06,24,13,39,24.50
2006,06,24,13,40,24.60
2006,06,24,13,41,24.60
2006,06,24,13,42,24.60
2006,06,24,13,43,24.70
2006,06,24,13,44,24.70
2006,06,24,13,45,24.70
2006,06,24,13,46,24.60
2006,06,24,13,47,24.50
2006,06,24,13,48,24.50
2006,06,24,13,49,24.50
2006,06,24,13,50,24.50
2006,06,24,13,51,24.50
2006,06,24,13,52,24.40
2006,06,24,13,53,24.40
2006,06,24,13,54,24.40
2006,06,24,13,55,24.40
2006,06,24,13,56,24.40
2006,06,24,13,57,24.40
2006,06,24,13,58,24.40
2006,06,24,13,59,24.30
2006,06,24,14,00,24.20
2006,06,24,14,01,24.20
2006,06,24,14,02,24.30
2006,06,24,14,03,24.40
2006,06,24,14,04,24.40
2006,06,24,14,05,24.30
2006,06,24,14,06,24.40
2006,06,24,14,07,24.40
2006,06,24,14,08,24.50
2006,06,24,14,09,24.50
2006,06,24,14,10,24.60
2006,06,24,14,11,24.60
2006,06,24,14,12,24.50
2006,06,24,14,13,24.50
2006,06,24,14,14,24.50
2006,06,24,14,15,24.50
2006,06,24,14,16,24.50
2006,06,24,14,17,24.60
2006,06,24,14,18,24.70
2006,06,24,14,19,24.80
2006,06,24,14,20,25.00
2006,06,24,14,21,25.20
2006,06,24,14,22,25.30
2006,06,24,14,23,25.30
2006,06,24,14,24,25.20
2006,06,24,14,25,25.10
2006,06,24,14,26,25.20
2006,06,24,14,27,25.20
2006,06,24,14,28,25.20
2006,06,24,14,29,25.00
2006,06,24,14,30,24.90
2006,06,24,14,31,24.90
2006,06,24,14,32,25.00
2006,06,24,14,33,25.00
2006,06,24,14,34,25.00
2006,06,24,14,35,25.00
2006,06,24,14,36,25.10
2006,06,24,14,37,25.10
2006,06,24,14,38,25.10
2006,06,24,14,39,25.10
2006,06,24,14,40,25.20
2006,06,24,14,41,25.20
2006,06,24,14,42,25.20
2006,06,24,14,43,25.20
2006,06,24,14,44,25.10
2006,06,24,14,45,25.00
2006,06,24,14,46,25.00
2006,06,24,14,47,25.10
2006,06,24,14,48,25.20
2006,06,24,14,49,25.40
2006,06,24,14,50,25.50
2006,06,24,14,51,25.40
2006,06,24,14,52,25.30
2006,06,24,14,53,25.20
2006,06,24,14,54,25.10
2006,06,24,14,55,25.10
2006,06,24,14,56,25.10
2006,06,24,14,57,25.10
2006,06,24,14,58,25.10
2006,06,24,14,59,25.10
2006,06,24,15,00,25.10
2006,06,24,15,01,25.10
2006,06,24,15,02,25.00
2006,06,24,15,03,24.90
2006,06,24,15,04,24.80
2006,06,24,15,05,24.70
2006,06,24,15,06,24.70
2006,06,24,15,07,24.70
2006,06,24,15,08,24.70
2006,06,24,15,09,24.70
2006,06,24,15,10,24.60
2006,06,24,15,11,24.70
2006,06,24,15,12,24.80
2006,06,24,15,13,24.80
2006,06,24,15,14,24.90
2006,06,24,15,15,24.90
2006,06,24,15,16,24.90
2006,06,24,15,17,24.90
2006,06,24,15,18,24.90
2006,06,24,15,19,24.90
2006,06,24,15,20,25.00
2006,06,24,15,21,25.00
2006,06,24,15,22,25.00
2006,06,24,15,23,25.00
2006,06,24,15,24,25.10
2006,06,24,15,25,25.10
2006,06,24,15,26,25.20
2006,06,24,15,27,25.20
2006,06,24,15,28,25.30
2006,06,24,15,29,25.40
2006,06,24,15,30,25.40
2006,06,24,15,31,25.40
2006,06,24,15,32,25.30
2006,06,24,15,33,25.30
2006,06,24,15,34,25.20
2006,06,24,15,35,25.20
2006,06,24,15,36,25.20
2006,06,24,15,37,25.20
2006,06,24,15,38,25.20
2006,06,24,15,39,25.30
2006,06,24,15,40,25.30
2006,06,24,15,41,25.20
2006,06,24,15,42,25.20
2006,06,24,15,43,25.20
2006,06,24,15,44,25.20
2006,06,24,15,45,25.20
2006,06,24,15,46,25.30
2006,06,24,15,47,25.30
2006,06,24,15,48,25.40
2006,06,24,15,49,25.50
2006,06,24,15,50,25.50
2006,06,24,15,51,25.50
2006,06,24,15,52,25.50
2006,06,24,15,53,25.70
2006,06,24,15,54,25.70
2006,06,24,15,55,25.80
2006,06,24,15,56,25.80
2006,06,24,15,57,25.70
2006,06,24,15,58,25.70
2006,06,24,15,59,25.70
2006,06,24,16,00,25.60
2006,06,24,16,01,25.50
2006,06,24,16,02,25.40
2006,06,24,16,03,25.40
2006,06,24,16,04,25.40
2006,06,24,16,05,25.40
2006,06,24,16,06,25.40
2006,06,24,16,07,25.40
2006,06,24,16,08,25.50
2006,06,24,16,09,25.60
2006,06,24,16,10,25.70
2006,06,24,16,11,25.80
2006,06,24,16,12,25.80
2006,06,24,16,13,25.80
2006,06,24,16,14,25.80
2006,06,24,16,15,25.70
2006,06,24,16,16,25.70
2006,06,24,16,17,25.80
2006,06,24,16,18,25.90
2006,06,24,16,19,25.90
2006,06,24,16,20,26.00
2006,06,24,16,21,26.00
2006,06,24,16,22,26.00
2006,06,24,16,23,25.90
2006,06,24,16,24,25.80
2006,06,24,16,25,25.80
2006,06,24,16,26,25.80
2006,06,24,16,27,25.70
2006,06,24,16,28,25.70
2006,06,24,16,29,25.70
2006,06,24,16,30,25.70
2006,06,24,16,31,25.70
2006,06,24,16,32,25.70
2006,06,24,16,33,25.70
2006,06,24,16,34,25.60
2006,06,24,16,35,25.70
2006,06,24,16,36,25.70
2006,06,24,16,37,25.70
2006,06,24,16,38,25.70
2006,06,24,16,39,25.70
2006,06,24,16,40,25.70
2006,06,24,16,41,25.80
2006,06,24,16,42,25.90
2006,06,24,16,43,25.90
2006,06,24,16,44,26.00
2006,06,24,16,45,26.00
2006,06,24,16,46,26.00
2006,06,24,16,47,25.90
2006,06,24,16,48,25.90
2006,06,24,16,49,25.90
2006,06,24,16,50,25.90
2006,06,24,16,51,25.90
2006,06,24,16,52,25.90
2006,06,24,16,53,25.80
2006,06,24,16,54,25.80
2006,06,24,16,55,25.70
2006,06,24,16,56,25.80
2006,06,24,16,57,25.70
2006,06,24,16,58,25.70
2006,06,24,16,59,25.70
2006,06,24,17,00,25.70
2006,06,24,17,01,25.70
2006,06,24,17,02,25.70
2006,06,24,17,03,25.70
2006,06,24,17,04,25.70
2006,06,24,17,05,25.70
2006,06,24,17,06,25.70
2006,06,24,17,07,25.70
2006,06,24,17,08,25.70
2006,06,24,17,09,25.70
2006,06,24,17,10,25.70
2006,06,24,17,11,25.70
2006,06,24,17,12,25.80
2006,06,24,17,13,25.80
2006,06,24,17,14,25.90
2006,06,24,17,15,25.90
2006,06,24,17,16,26.00
2006,06,24,17,17,26.00
2006,06,24,17,18,26.10
2006,06,24,17,19,26.10
2006,06,24,17,20,26.20
2006,06,24,17,21,26.20
2006,06,24,17,22,26.20
2006,06,24,17,23,26.30
2006,06,24,17,24,26.30
2006,06,24,17,25,26.30
2006,06,24,17,26,26.30
2006,06,24,17,27,26.30
2006,06,24,17,28,26.40
2006,06,24,17,29,26.40
2006,06,24,17,30,26.50
2006,06,24,17,31,26.60